EHI
0 0 0 1 0 0 0 0 0 0 1 2 4 5 5 6 4 2 2 3 3 3 2 1 0 0 1 2 1 0 0 0 0 0 0 0 0 0 0 0 0 0 0
0 0 0 1 0 0 0 0 0 0 1 2 3 4 3 3 2 2 2 1 1 2 2 1 0 0 1 2 2 1 1 0 0 0 0 0 0 0 0 0 0 0 0
1 0 0 0 0 0 0 0 0 0 0 1 1 1 1 1 0 1 1 0 0 1 1 1 0 0 0 1 2 2 1 0 0 0 0 0 0 0 0 0 0 0 0
2 1 0 0 0 0 0 1 1 1 1 0 0 0 0 0 0 0 0 0 0 0 0 0 0 0 0 0 1 1 1 0 0 0 0 0 0 0 0 0 0 0 0
1 0 0 0 1 1 1 2 2 2 2 1 0 0 0 0 0 0 0 0 0 0 0 0 0 0 0 0 0 0 0 0 0 0 0 0 0 0 0 0 0 0 0
0 0 0 1 1 1 2 3 3 3 2 1 0 0 0 0 0 0 0 0 0 0 0 0 0 0 0 1 1 1 0 0 0 0 0 0 0 0 0 0 0 0 0
0 0 1 2 2 2 2 2 2 2 1 0 0 0 0 0 0 0 0 0 0 0 0 0 0 0 0 2 2 1 0 0 0 0 0 0 0 0 0 0 0 0 0
0 0 1 2 2 1 1 1 1 1 0 0 0 0 0 0 0 0 0 0 0 0 0 0 0 0 1 1 1 1 0 0 0 0 0 0 0 0 0 0 0 0 0
0 0 0 1 1 0 0 0 0 0 0 0 0 0 0 0 0 0 0 0 0 0 0 0 0 0 1 1 0 0 0 0 0 0 0 0 0 0 0 0 0 0 0
0 0 0 0 0 0 0 0 0 0 0 0 0 0 0 0 0 0 0 0 0 1 1 0 0 0 0 0 0 0 0 0 0 0 0 0 0 0 0 0 0 0 0
0 1 1 0 0 0 0 0 0 0 0 0 0 0 0 0 0 0 0 0 0 1 2 1 0 0 0 0 0 0 0 0 0 0 0 0 0 0 0 0 0 0 0
1 2 1 0 0 0 0 0 0 0 0 0 0 0 0 0 0 0 0 0 0 1 2 1 0 0 0 0 0 0 0 0 0 0 0 0 0 0 0 0 0 0 0
2 2 1 0 0 0 0 0 0 0 0 0 0 0 0 0 0 0 0 0 0 0 1 1 0 0 0 0 0 0 0 0 0 0 0 0 0 0 0 0 0 0 0
2 2 1 0 0 0 0 0 0 0 0 0 0 0 0 0 0 0 0 0 0 0 0 0 0 0 0 0 0 0 0 0 0 0 0 0 0 0 0 0 0 0 0
1 1 1 0 0 0 0 0 0 0 0 0 0 0 0 0 0 0 0 0 0 0 0 0 0 0 0 0 0 0 0 0 0 0 0 0 0 0 0 0 0 0 0
0 0 0 0 0 0 0 0 0 0 0 0 0 0 0 0 0 0 0 0 0 0 0 0 0 0 0 0 0 0 0 0 0 0 0 0 0 0 0 0 0 0 0
0 0 0 0 0 0 0 0 0 0 0 0 0 0 0 0 0 0 0 0 0 0 0 0 0 0 0 0 0 0 0 0 0 0 0 0 0 0 0 0 0 0 0
0 0 0 0 0 0 0 0 0 0 0 0 0 0 0 0 0 0 0 0 0 0 0 0 0 0 0 0 0 0 0 0 0 0 0 0 0 0 0 0 0 0 0
0 0 0 0 1 0 0 0 0 0 0 0 0 0 0 0 0 0 0 0 0 0 0 0 0 0 0 0 0 0 0 0 0 0 0 0 0 0 0 0 0 0 0
0 0 0 0 0 0 0 0 0 0 0 0 0 0 0 0 0 0 0 0 0 0 0 0 0 0 0 0 0 0 0 0 0 0 0 0 0 0 0 0 0 0 0
0 0 0 0 0 0 0 0 0 0 0 0 0 0 0 0 0 0 0 0 0 0 0 0 0 0 0 0 0 0 0 0 0 0 0 0 0 0 0 0 0 0 0
0 0 0 0 0 0 0 0 0 0 0 0 0 0 0 0 0 0 0 0 0 0 0 0 0 0 0 0 0 0 0 0 0 0 0 0 0 0 0 0 0 0 0
0 0 0 0 0 0 0 0 0 0 0 0 0 0 0 0 0 0 0 0 0 0 0 0 0 0 0 0 0 0 0 0 0 0 0 0 0 0 0 0 0 0 0
0 0 0 0 0 0 0 0 0 0 0 0 0 0 0 0 0 0 0 0 0 0 0 0 0 0 0 0 0 0 0 0 0 0 0 0 0 0 0 0 0 0 0
0 0 0 0 0 0 0 0 0 0 0 0 0 0 0 0 0 0 0 0 0 0 0 0 0 0 0 0 0 0 0 0 0 0 0 0 0 0 0 0 0 0 0
0 0 0 0 0 0 0 0 0 0 0 0 0 0 0 0 0 0 0 0 0 0 0 0 0 0 0 0 0 0 0 0 0 0 0 0 0 0 0 0 0 0 0
Wind_Speed
3 4 10 10 9 9 8 8 7 6 6 6 6 5 5 5 5 6 6 5 5 5 5 4 4 4 5 5 4 4 4 4 5 5 4 3 3 3 4 4 5 3 6
7 6 10 10 10 9 8 7 6 6 5 5 5 4 4 4 4 5 4 4 4 3 3 3 3 3 3 3 3 3 3 4 4 4 4 3 2 2 3 3 4 2 5
8 6 8 10 10 9 8 6 6 5 5 4 3 3 3 2 3 3 3 3 3 2 2 2 2 1 1 1 1 1 2 3 4 4 3 1 0 2 3 3 4 4 5
9 7 7 10 9 8 7 6 5 5 4 3 2 1 1 1 1 2 2 2 2 2 2 2 1 1 1 1 1 1 2 3 4 4 2 1 1 3 4 4 4 4 4
8 6 8 11 9 8 7 6 5 4 3 2 1 0 1 1 2 2 2 2 2 2 2 2 2 2 3 3 2 2 3 3 4 3 2 1 1 4 4 4 3 4 4
8 7 8 11 10 9 7 6 5 3 2 1 0 1 2 2 3 3 4 4 4 4 4 3 3 4 4 4 3 3 4 4 3 2 1 1 2 4 5 4 4 4 4
8 6 7 11 10 9 8 6 5 3 2 1 1 2 2 3 4 4 5 5 6 5 5 4 4 4 5 5 4 5 5 5 2 1 1 2 3 5 5 5 4 4 4
9 7 6 10 10 9 8 6 5 3 2 1 1 2 3 4 5 5 6 6 7 7 6 5 5 5 5 5 6 6 6 6 3 1 2 3 5 7 7 6 5 4 4
7 7 5 5 6 8 8 7 5 4 3 2 3 4 5 6 6 7 7 7 7 7 6 6 6 6 6 7 7 8 7 6 2 1 2 2 6 8 8 7 6 5 5
6 6 5 4 4 4 4 6 6 5 3 3 3 4 5 6 7 8 8 8 8 7 7 7 6 7 7 8 8 9 8 5 2 2 2 4 8 8 8 8 7 6 5
5 4 5 4 4 3 3 4 4 3 2 2 3 5 5 3 3 4 6 7 7 7 7 7 7 7 7 7 8 9 6 2 2 2 2 6 9 9 8 8 8 7 6
6 5 4 4 4 3 3 2 1 1 1 1 1 2 2 2 2 2 4 6 6 6 7 7 7 7 5 2 5 6 2 2 2 2 3 8 10 10 9 8 8 8 7
6 5 5 5 4 3 2 1 1 0 0 1 1 1 1 1 2 2 1 3 3 4 2 4 3 2 2 2 2 2 2 2 2 2 3 8 10 10 9 9 8 8 8
6 5 5 5 4 3 2 2 1 1 0 0 1 1 1 1 2 1 1 2 2 1 1 1 1 2 2 2 3 3 3 2 2 2 3 8 9 9 9 8 9 9 9
7 6 6 6 5 3 2 1 2 1 1 0 1 1 1 1 1 2 1 2 2 1 1 1 1 2 2 2 2 3 2 3 3 2 2 7 8 9 9 9 9 9 9
8 7 5 6 5 4 3 2 1 1 1 1 1 2 2 1 1 1 2 2 2 2 1 1 1 1 1 1 2 3 3 3 3 3 2 4 6 7 9 9 9 9 9
8 7 6 6 5 5 4 3 2 1 1 1 1 2 2 2 2 1 1 2 2 2 2 2 2 1 1 2 2 2 2 2 2 3 3 2 2 5 8 9 9 9 9
8 7 6 6 6 5 4 3 2 1 2 1 1 1 2 2 2 2 1 2 2 2 2 1 2 2 2 2 2 2 1 1 2 2 2 2 2 2 4 7 7 8 9
9 8 6 6 6 5 4 3 2 2 1 1 1 1 1 2 2 1 1 1 2 1 2 2 1 1 2 2 3 2 1 1 1 1 1 2 2 2 2 4 6 7 8
8 7 7 6 5 5 3 3 2 2 1 1 1 1 1 1 2 1 1 2 2 1 2 2 1 1 1 2 2 2 1 1 1 1 1 1 1 2 2 2 2 4 7
7 7 7 6 5 4 2 2 1 0 0 1 0 0 1 1 1 1 1 1 1 1 1 1 1 2 2 1 2 2 3 2 1 0 1 1 1 1 2 2 2 2 3
7 7 7 6 6 4 3 2 2 2 1 1 1 1 1 1 1 1 0 1 1 1 2 1 1 1 1 2 1 1 2 4 3 1 0 1 1 1 1 2 2 2 2
8 8 7 6 6 5 4 2 2 2 2 2 1 1 2 1 1 1 1 1 1 0 0 1 0 1 0 1 1 2 2 1 2 2 1 1 1 0 0 0 1 2 3
7 7 7 7 6 5 4 4 3 2 1 2 2 2 2 2 2 1 1 1 1 1 1 1 1 1 1 0 1 1 1 2 1 1 2 1 0 0 0 0 0 1 2
8 8 7 7 6 4 4 4 4 2 2 1 1 1 2 2 2 2 2 1 1 1 1 1 0 1 1 1 1 0 1 1 1 1 1 2 2 1 0 0 1 1 1
6 7 7 7 5 4 4 4 4 4 2 1 1 1 2 2 2 3 2 1 1 1 1 2 1 1 1 1 1 1 1 1 0 1 1 1 1 2 1 0 1 1 1
Wind_Direction
151 159 142 135 129 126 124 123 123 123 123 120 115 110 106 103 105 109 108 106 99 94 89 86 81 77 78 74 72 63 52 41 35 32 34 38 53 59 67 71 71 60 65
150 150 140 134 131 128 127 127 127 125 121 117 116 113 111 114 118 119 120 119 113 107 106 101 94 85 86 82 67 49 33 21 16 13 14 25 47 75 86 82 83 77 66
138 140 137 134 131 129 127 126 124 122 122 118 115 111 113 128 135 139 139 137 134 139 142 135 122 112 114 113 71 25 6 0 357 356 359 355 200 133 117 99 91 84 78
139 141 139 136 134 132 129 126 123 121 118 118 117 124 132 163 184 188 187 183 172 171 174 179 180 190 199 187 223 299 324 336 341 346 351 305 222 146 135 113 99 93 86
138 140 143 138 135 134 131 129 126 122 119 111 92 329 290 283 270 259 256 252 235 223 216 209 216 226 233 233 233 268 293 311 324 339 338 293 191 156 140 127 112 100 95
143 146 149 145 143 139 136 135 133 128 126 125 335 316 312 302 294 283 275 268 258 254 247 238 233 238 240 244 241 256 275 289 315 328 304 218 198 167 148 140 128 118 105
149 155 157 153 150 147 146 144 143 143 141 131 323 308 301 293 289 286 279 276 267 259 257 251 242 243 244 249 249 253 261 274 277 280 255 214 205 173 159 152 143 133 120
156 161 161 160 157 158 158 158 160 162 173 222 287 298 300 298 292 286 281 276 271 265 263 255 245 247 249 252 256 256 257 263 272 275 254 221 205 180 172 162 155 145 131
154 156 163 168 169 171 172 175 179 185 202 241 276 288 293 295 295 289 281 276 272 268 265 260 252 251 254 253 252 254 255 258 260 251 251 224 205 186 176 168 165 156 143
149 158 168 173 178 185 188 191 193 202 222 258 284 290 294 298 299 294 287 278 274 268 267 265 261 256 259 257 254 253 253 260 254 243 242 225 207 189 178 172 171 164 152
162 170 168 172 178 189 202 207 199 218 244 278 307 310 311 308 304 295 288 283 276 274 274 271 267 264 264 262 264 262 257 242 250 241 235 227 208 195 182 177 176 172 164
170 178 168 168 181 188 201 179 221 241 274 275 308 320 322 309 303 310 299 299 286 283 283 279 276 273 268 263 271 279 254 241 243 245 237 226 209 199 187 179 178 177 172
167 162 157 157 163 163 161 157 190 205 248 287 309 316 338 339 337 343 336 328 316 311 309 304 299 278 255 242 251 262 245 230 229 245 240 226 210 200 190 185 182 181 179
153 156 147 145 145 144 136 146 143 139 140 303 302 353 30 10 1 351 350 334 329 318 306 288 285 280 262 243 240 251 246 229 225 230 235 226 212 200 192 191 187 183 182
155 156 147 143 137 135 122 113 110 125 151 248 339 2 44 45 8 358 351 355 340 333 322 307 302 292 285 265 249 245 248 243 228 226 235 227 213 204 198 194 193 187 185
160 159 151 141 141 132 123 113 112 115 107 68 29 21 40 62 50 23 5 358 350 345 339 326 325 310 294 291 272 258 249 234 221 218 221 232 220 210 204 197 196 190 188
163 158 151 145 134 124 115 110 110 104 94 77 51 40 48 60 61 52 27 1 338 345 360 2 355 354 344 333 298 282 265 241 218 214 208 211 227 221 211 202 197 193 190
156 152 150 140 129 119 111 107 107 98 87 72 57 43 46 47 48 48 31 352 337 357 12 8 9 358 346 334 307 293 282 250 224 203 195 191 202 216 214 207 199 198 197
158 150 143 136 133 126 116 107 100 85 75 65 58 46 34 39 46 50 24 338 347 5 6 354 16 6 338 328 304 290 297 265 240 198 181 188 192 200 214 214 205 203 201
154 146 140 136 134 125 108 88 67 53 35 39 41 33 37 28 33 32 2 349 2 8 357 355 353 356 336 316 317 331 315 287 227 182 184 188 189 194 207 209 202 212 207
144 141 142 139 143 129 112 109 102 73 331 4 329 18 25 14 20 31 1 351 3 7 331 340 356 3 348 354 27 359 347 345 0 62 166 168 187 193 192 193 195 195 209
151 148 145 146 147 145 145 155 162 164 209 235 302 353 333 329 331 13 33 321 330 358 359 6 44 34 349 25 81 63 3 352 350 357 1 179 160 152 177 190 195 197 197
154 157 150 149 146 146 139 113 77 54 31 13 345 323 302 287 293 314 291 262 294 183 291 301 121 123 21 349 53 119 125 248 313 331 340 36 80 108 214 150 193 211 195
164 153 146 147 148 149 136 127 133 143 182 234 241 262 287 293 295 288 283 267 256 223 232 254 161 150 128 28 344 38 144 167 147 329 335 344 353 164 243 157 165 211 196
158 151 150 146 150 155 145 142 143 157 201 239 256 282 298 301 298 290 287 283 259 226 223 236 213 153 149 155 157 114 48 48 90 133 320 330 344 318 290 168 167 203 207
154 150 149 147 158 162 152 153 160 170 177 179 261 277 291 295 298 294 291 290 262 236 230 223 206 181 171 160 160 151 143 130 157 126 146 286 307 302 314 28 161 179 200